Simultaneous Nadir Overpasses (SNOs) Predictions

Prediction of SNOs between AQUA and NOAA-19 Satellite Orbit:

Table of predicted SNOs for the next 14.0 days since TLE Epoch: 4/5/2013
Index Date (AQUA) Time (AQUA) Lat,Lon (AQUA) SZA (AQUA ) Date (NOAA-19) Time (NOAA-19) Lat,Lon (NOAA-19) SZA (NOAA-19 ) Distance(km) Time Diff (sec)
1 04/07/2013 11:54:18 69.90, 2.28 62.80 04/07/2013 11:53:05 69.69, 1.05 62.60 52.39 73
2 04/07/2013 12:36:51 -46.08,-173.80 139.03 04/07/2013 12:37:02 -45.97,-174.31 139.25 41.56 11
3 04/09/2013 16:36:32 62.80, -61.38 55.12 04/09/2013 16:35:19 62.68, -62.15 54.93 41.40 73
4 04/09/2013 17:21:11 -46.10, 115.12 139.76 04/09/2013 17:21:26 -46.00, 114.59 139.97 42.22 15
5 04/11/2013 21:18:39 55.11,-127.55 47.29 04/11/2013 21:17:26 55.04,-127.99 47.11 28.85 73
6 04/11/2013 22:05:30 -46.09, 44.05 140.50 04/11/2013 22:05:49 -45.99, 43.51 140.72 42.93 19
7 04/14/2013 02:01:35 50.23, 163.67 42.27 04/14/2013 02:00:24 50.19, 163.38 42.10 20.98 71
8 04/14/2013 02:49:49 -46.10, -27.03 141.21 04/14/2013 02:50:12 -45.98, -27.57 141.44 43.79 23
9 04/16/2013 06:45:49 49.97, 92.71 41.32 04/16/2013 06:44:43 49.93, 92.42 41.15 21.51 66
10 04/16/2013 07:34:07 -46.08, -98.09 141.94 04/16/2013 07:34:35 -45.98, -98.65 142.15 44.64 28
11 04/18/2013 11:30:01 49.63, 21.79 40.31 04/18/2013 11:29:00 49.57, 21.50 40.13 21.93 61
